Time,TemperatureF,DewpointF,PressureIn,WindDirection,WindDirectionDegrees,WindSpeedMPH,WindSpeedGustMPH,Humidity,HourlyPrecipIn,Conditions,Clouds,dailyrainin,SoftwareType,DateUTC
2013-11-05 00:11:00,52.6,45.0,30.20,South,181,7.0,12.0,76,0.00,,,0.00,weatherlink.com 1.10,2013-11-05 06:11:00,
2013-11-05 00:26:00,52.4,45.0,30.21,SSE,153,4.0,9.0,76,0.00,,,0.00,weatherlink.com 1.10,2013-11-05 06:26:00,
2013-11-05 00:41:00,52.3,45.0,30.20,SSE,157,5.0,12.0,77,0.00,,,0.00,weatherlink.com 1.10,2013-11-05 06:41:00,
2013-11-05 00:56:00,52.2,45.0,30.21,SSE,152,5.0,9.0,77,0.00,,,0.00,weatherlink.com 1.10,2013-11-05 06:56:00,
2013-11-05 01:11:00,52.1,45.0,30.21,SSE,155,6.0,9.0,77,0.00,,,0.00,weatherlink.com 1.10,2013-11-05 07:11:00,
2013-11-05 01:26:00,52.1,45.0,30.22,South,190,9.0,9.0,78,0.00,,,0.00,weatherlink.com 1.10,2013-11-05 07:26:00,
2013-11-05 01:41:00,52.2,46.0,30.21,South,173,4.0,9.0,78,0.00,,,0.00,weatherlink.com 1.10,2013-11-05 07:41:00,
2013-11-05 01:56:00,52.1,45.0,30.21,South,173,8.0,8.0,78,0.00,,,0.00,weatherlink.com 1.10,2013-11-05 07:56:00,
2013-11-05 02:11:00,52.0,46.0,30.21,SSE,168,3.0,8.0,79,0.00,,,0.00,weatherlink.com 1.10,2013-11-05 08:11:00,
2013-11-05 02:26:00,51.9,46.0,30.21,SSE,147,3.0,8.0,80,0.00,,,0.00,weatherlink.com 1.10,2013-11-05 08:26:00,
2013-11-05 02:41:00,51.8,46.0,30.20,SSE,165,4.0,7.0,80,0.00,,,0.00,weatherlink.com 1.10,2013-11-05 08:41:00,
2013-11-05 02:56:00,51.8,46.0,30.21,South,169,5.0,7.0,80,0.00,,,0.00,weatherlink.com 1.10,2013-11-05 08:56:00,
2013-11-05 03:11:00,51.9,46.0,30.22,SSE,151,4.0,8.0,81,0.00,,,0.00,weatherlink.com 1.10,2013-11-05 09:11:00,
2013-11-05 03:26:00,52.0,47.0,30.22,South,171,5.0,7.0,82,0.00,,,0.00,weatherlink.com 1.10,2013-11-05 09:26:00,
2013-11-05 03:41:00,51.7,47.0,30.22,SSE,163,4.0,7.0,85,0.00,,,0.00,weatherlink.com 1.10,2013-11-05 09:41:00,
2013-11-05 03:56:00,51.2,48.0,30.21,SSE,160,2.0,6.0,87,0.00,,,0.00,weatherlink.com 1.10,2013-11-05 09:56:00,
2013-11-05 04:11:00,51.0,48.0,30.22,SSE,156,5.0,6.0,88,0.00,,,0.00,weatherlink.com 1.10,2013-11-05 10:11:00,
2013-11-05 04:26:00,51.2,48.0,30.22,SSE,163,4.0,8.0,88,0.00,,,0.00,weatherlink.com 1.10,2013-11-05 10:26:00,
2013-11-05 04:41:00,51.2,48.0,30.22,SSE,168,4.0,6.0,88,0.00,,,0.00,weatherlink.com 1.10,2013-11-05 10:41:00,
2013-11-05 04:56:00,51.0,48.0,30.22,SSE,165,2.0,5.0,89,0.00,,,0.00,weatherlink.com 1.10,2013-11-05 10:56:00,
2013-11-05 05:11:00,50.9,48.0,30.22,SSE,160,2.0,4.0,89,0.00,,,0.00,weatherlink.com 1.10,2013-11-05 11:11:00,
2013-11-05 05:26:00,51.0,48.0,30.23,SSE,155,2.0,4.0,89,0.00,,,0.00,weatherlink.com 1.10,2013-11-05 11:26:00,
2013-11-05 05:41:00,51.0,48.0,30.21,SSE,148,0.0,3.0,89,0.00,,,0.00,weatherlink.com 1.10,2013-11-05 11:41:00,
2013-11-05 05:56:00,51.2,48.0,30.22,SE,139,0.0,3.0,88,0.00,,,0.00,weatherlink.com 1.10,2013-11-05 11:56:00,
2013-11-05 06:11:00,51.4,48.0,30.23,SSE,157,5.0,6.0,87,0.00,,,0.00,weatherlink.com 1.10,2013-11-05 12:11:00,
2013-11-05 06:26:00,51.2,48.0,30.23,SSE,165,2.0,6.0,88,0.00,,,0.00,weatherlink.com 1.10,2013-11-05 12:26:00,
2013-11-05 06:41:00,51.6,48.0,30.23,South,178,3.0,7.0,88,0.00,,,0.00,weatherlink.com 1.10,2013-11-05 12:41:00,
2013-11-05 06:56:00,51.7,48.0,30.23,SSE,161,6.0,8.0,88,0.00,,,0.00,weatherlink.com 1.10,2013-11-05 12:56:00,
2013-11-05 07:11:00,51.5,49.0,30.24,South,177,4.0,8.0,90,0.00,,,0.00,weatherlink.com 1.10,2013-11-05 13:11:00,
2013-11-05 07:26:00,50.9,49.0,30.24,South,169,3.0,9.0,92,0.00,,,0.00,weatherlink.com 1.10,2013-11-05 13:26:00,
2013-11-05 07:41:00,50.4,49.0,30.24,SSE,150,2.0,9.0,94,0.00,,,0.00,weatherlink.com 1.10,2013-11-05 13:41:00,
2013-11-05 07:56:00,50.3,49.0,30.25,SSW,200,3.0,7.0,95,0.00,,,0.00,weatherlink.com 1.10,2013-11-05 13:56:00,
2013-11-05 08:11:00,50.3,49.0,30.24,SSE,161,5.0,7.0,95,0.00,,,0.00,weatherlink.com 1.10,2013-11-05 14:11:00,
2013-11-05 08:26:00,50.6,49.0,30.24,SSE,150,3.0,9.0,95,0.00,,,0.00,weatherlink.com 1.10,2013-11-05 14:26:00,
2013-11-05 08:41:00,50.8,49.0,30.24,SSE,162,3.0,7.0,94,0.00,,,0.00,weatherlink.com 1.10,2013-11-05 14:41:00,
2013-11-05 08:56:00,51.0,49.0,30.24,SE,143,3.0,11.0,93,0.00,,,0.00,weatherlink.com 1.10,2013-11-05 14:56:00,
2013-11-05 09:11:00,51.1,49.0,30.24,South,178,5.0,11.0,93,0.00,,,0.00,weatherlink.com 1.10,2013-11-05 15:11:00,
2013-11-05 09:26:00,51.1,50.0,30.23,SSE,168,5.0,9.0,94,0.00,,,0.00,weatherlink.com 1.10,2013-11-05 15:26:00,
2013-11-05 09:41:00,51.1,50.0,30.23,South,169,5.0,11.0,95,0.00,,,0.00,weatherlink.com 1.10,2013-11-05 15:41:00,
2013-11-05 09:56:00,51.4,50.0,30.23,SW,215,4.0,10.0,95,0.00,,,0.00,weatherlink.com 1.10,2013-11-05 15:56:00,
2013-11-05 10:11:00,51.5,50.0,30.23,SSE,153,6.0,11.0,96,0.00,,,0.00,weatherlink.com 1.10,2013-11-05 16:11:00,
2013-11-05 10:26:00,51.5,50.0,30.23,SE,136,8.0,9.0,96,0.01,,,0.01,weatherlink.com 1.10,2013-11-05 16:26:00,
2013-11-05 10:41:00,51.6,51.0,30.22,SE,143,2.0,10.0,96,0.02,,,0.02,weatherlink.com 1.10,2013-11-05 16:41:00,
2013-11-05 10:56:00,51.8,51.0,30.22,SE,144,7.0,10.0,96,0.03,,,0.03,weatherlink.com 1.10,2013-11-05 16:56:00,
2013-11-05 11:11:00,52.0,51.0,30.21,ESE,121,4.0,12.0,97,0.04,,,0.04,weatherlink.com 1.10,2013-11-05 17:11:00,
2013-11-05 11:26:00,52.0,51.0,30.20,SSE,159,4.0,9.0,97,0.05,,,0.06,weatherlink.com 1.10,2013-11-05 17:26:00,
2013-11-05 11:41:00,51.9,51.0,30.19,SSE,159,1.0,8.0,96,0.06,,,0.08,weatherlink.com 1.10,2013-11-05 17:41:00,
2013-11-05 11:56:00,51.8,51.0,30.19,South,170,3.0,9.0,96,0.05,,,0.08,weatherlink.com 1.10,2013-11-05 17:56:00,
2013-11-05 12:11:00,51.7,51.0,30.18,SSE,166,5.0,13.0,96,0.05,,,0.01,weatherlink.com 1.10,2013-11-05 18:11:00,
2013-11-05 12:26:00,52.0,51.0,30.16,SE,142,6.0,10.0,97,0.05,,,0.02,weatherlink.com 1.10,2013-11-05 18:26:00,
2013-11-05 12:41:00,52.7,52.0,30.16,SE,126,5.0,9.0,97,0.04,,,0.03,weatherlink.com 1.10,2013-11-05 18:41:00,
2013-11-05 12:57:00,52.7,52.0,30.15,SSE,155,7.0,12.0,96,0.03,,,0.03,weatherlink.com 1.10,2013-11-05 18:57:00,
2013-11-05 13:11:00,52.5,51.0,30.15,SE,127,3.0,14.0,96,0.02,,,0.03,weatherlink.com 1.10,2013-11-05 19:11:00,
2013-11-05 13:27:00,52.4,51.0,30.14,SSE,163,8.0,9.0,96,0.01,,,0.03,weatherlink.com 1.10,2013-11-05 19:27:00,
2013-11-05 13:42:00,52.5,51.0,30.12,SSE,148,5.0,12.0,96,0.00,,,0.03,weatherlink.com 1.10,2013-11-05 19:42:00,
2013-11-05 13:57:00,52.6,52.0,30.12,ESE,118,5.0,10.0,96,0.00,,,0.03,weatherlink.com 1.10,2013-11-05 19:57:00,
2013-11-05 14:12:00,52.8,52.0,30.11,South,171,4.0,14.0,95,0.00,,,0.03,weatherlink.com 1.10,2013-11-05 20:12:00,
2013-11-05 14:27:00,53.4,52.0,30.10,SSE,162,3.0,10.0,95,0.00,,,0.03,weatherlink.com 1.10,2013-11-05 20:27:00,
2013-11-05 14:42:00,53.6,52.0,30.09,SE,146,5.0,9.0,94,0.00,,,0.03,weatherlink.com 1.10,2013-11-05 20:42:00,
2013-11-05 14:57:00,53.8,52.0,30.10,SSE,152,6.0,11.0,94,0.00,,,0.03,weatherlink.com 1.10,2013-11-05 20:57:00,
2013-11-05 15:12:00,53.9,52.0,30.09,SSE,150,4.0,10.0,94,0.00,,,0.03,weatherlink.com 1.10,2013-11-05 21:12:00,
2013-11-05 15:27:00,54.2,53.0,30.08,ESE,115,2.0,10.0,94,0.00,,,0.03,weatherlink.com 1.10,2013-11-05 21:27:00,
2013-11-05 15:57:00,54.6,52.0,30.07,SE,138,2.0,9.0,92,0.00,,,0.03,weatherlink.com 1.10,2013-11-05 21:57:00,
2013-11-05 16:12:00,54.8,52.0,30.06,SSE,165,7.0,13.0,91,0.00,,,0.03,weatherlink.com 1.10,2013-11-05 22:12:00,
2013-11-05 16:27:00,54.8,52.0,30.06,SE,132,5.0,10.0,90,0.00,,,0.03,weatherlink.com 1.10,2013-11-05 22:27:00,
2013-11-05 16:42:00,54.8,52.0,30.06,South,181,4.0,12.0,90,0.00,,,0.03,weatherlink.com 1.10,2013-11-05 22:42:00,
2013-11-05 16:57:00,54.8,52.0,30.06,East,100,6.0,15.0,89,0.00,,,0.03,weatherlink.com 1.10,2013-11-05 22:57:00,
2013-11-05 17:12:00,54.8,52.0,30.05,SSE,162,5.0,10.0,89,0.00,,,0.03,weatherlink.com 1.10,2013-11-05 23:12:00,
2013-11-05 17:27:00,54.8,52.0,30.06,ESE,121,5.0,15.0,89,0.00,,,0.03,weatherlink.com 1.10,2013-11-05 23:27:00,
2013-11-05 17:42:00,54.1,52.0,30.05,SSE,147,6.0,14.0,91,0.00,,,0.03,weatherlink.com 1.10,2013-11-05 23:42:00,
2013-11-05 17:57:00,53.5,52.0,30.05,SSE,147,8.0,13.0,93,0.00,,,0.03,weatherlink.com 1.10,2013-11-05 23:57:00,
2013-11-05 18:12:00,53.2,52.0,30.05,SSE,151,8.0,11.0,94,0.01,,,0.04,weatherlink.com 1.10,2013-11-06 00:12:00,
2013-11-05 18:27:00,53.1,52.0,30.05,SE,124,6.0,12.0,94,0.01,,,0.04,weatherlink.com 1.10,2013-11-06 00:27:00,
2013-11-05 18:42:00,53.3,52.0,30.04,SE,144,4.0,11.0,94,0.01,,,0.04,weatherlink.com 1.10,2013-11-06 00:42:00,
2013-11-05 18:57:00,53.2,52.0,30.03,SSE,159,6.0,11.0,95,0.02,,,0.05,weatherlink.com 1.10,2013-11-06 00:57:00,
2013-11-05 19:12:00,53.3,52.0,30.01,SSE,163,6.0,16.0,95,0.01,,,0.05,weatherlink.com 1.10,2013-11-06 01:12:00,
2013-11-05 19:27:00,53.9,52.0,30.01,SE,142,7.0,19.0,93,0.01,,,0.05,weatherlink.com 1.10,2013-11-06 01:27:00,
2013-11-05 19:42:00,54.0,52.0,30.01,SSE,165,4.0,12.0,93,0.01,,,0.05,weatherlink.com 1.10,2013-11-06 01:42:00,
2013-11-05 19:57:00,54.0,52.0,30.00,SSE,157,8.0,15.0,93,0.00,,,0.05,weatherlink.com 1.10,2013-11-06 01:57:00,
2013-11-05 20:12:00,54.3,52.0,30.00,SSE,159,8.0,13.0,92,0.00,,,0.05,weatherlink.com 1.10,2013-11-06 02:12:00,
2013-11-05 20:27:00,54.5,52.0,30.00,SSE,165,5.0,14.0,91,0.00,,,0.05,weatherlink.com 1.10,2013-11-06 02:27:00,
2013-11-05 20:42:00,54.7,52.0,29.99,South,169,6.0,15.0,90,0.00,,,0.05,weatherlink.com 1.10,2013-11-06 02:42:00,
2013-11-05 20:58:00,54.6,52.0,30.00,South,182,7.0,21.0,90,0.03,,,0.08,weatherlink.com 1.10,2013-11-06 02:58:00,
2013-11-05 21:13:00,54.0,52.0,29.99,SSE,157,9.0,20.0,92,0.05,,,0.10,weatherlink.com 1.10,2013-11-06 03:13:00,
2013-11-05 21:28:00,53.5,52.0,29.98,SSE,148,8.0,18.0,94,0.09,,,0.14,weatherlink.com 1.10,2013-11-06 03:28:00,
2013-11-05 21:43:00,53.2,52.0,29.98,SSE,158,8.0,16.0,95,0.10,,,0.15,weatherlink.com 1.10,2013-11-06 03:43:00,
2013-11-05 21:58:00,53.1,52.0,29.98,South,185,7.0,14.0,95,0.08,,,0.16,weatherlink.com 1.10,2013-11-06 03:58:00,
2013-11-05 22:13:00,53.1,52.0,29.98,SSE,150,4.0,15.0,94,0.07,,,0.17,weatherlink.com 1.10,2013-11-06 04:13:00,
2013-11-05 22:28:00,53.1,52.0,29.96,South,180,6.0,14.0,94,0.02,,,0.17,weatherlink.com 1.10,2013-11-06 04:28:00,
2013-11-05 22:43:00,53.2,51.0,29.97,SSE,158,12.0,15.0,93,0.02,,,0.17,weatherlink.com 1.10,2013-11-06 04:43:00,
2013-11-05 22:58:00,52.9,51.0,29.97,South,173,8.0,16.0,94,0.03,,,0.19,weatherlink.com 1.10,2013-11-06 04:58:00,
2013-11-05 23:13:00,52.5,51.0,29.96,SSE,155,6.0,17.0,95,0.05,,,0.22,weatherlink.com 1.10,2013-11-06 05:13:00,
2013-11-05 23:28:00,52.3,51.0,29.96,SSE,159,8.0,15.0,95,0.08,,,0.25,weatherlink.com 1.10,2013-11-06 05:28:00,
2013-11-05 23:43:00,52.3,51.0,29.95,South,183,8.0,15.0,95,0.10,,,0.27,weatherlink.com 1.10,2013-11-06 05:43:00,
2013-11-05 23:58:00,52.4,51.0,29.95,SSE,167,8.0,12.0,95,0.09,,,0.28,weatherlink.com 1.10,2013-11-06 05:58:00,